Location: Beaver Meadows
(40.3728°N, 105.6136°W)
Time: 03:52:00
(UTC-06:00)

ISS - Visible Passes

Search period start: 27 May 2017 00:00
Search period end: 06 June 2017 00:00
Orbit: 402 x 408 km, 51.6° (Epoch: 27 May)

Date Brightness Start Highest point End Pass type
(mag) Time Alt. Az. Time Alt. Az. Time Alt. Az.
27 May -0.4 00:44:02 10° NNW 00:45:30 12° N 00:46:58 10° NNE visible
27 May -1.8 02:19:55 10° NW 02:22:50 28° NNE 02:23:12 28° NE visible
27 May -2.1 04:01:13 19° SSE 04:01:13 19° SSE 04:02:22 10° SSE visible
27 May -0.8 22:13:12 10° WNW 22:15:38 19° NNW 22:18:03 10° NNE visible
27 May -0.4 23:51:52 10° NNW 23:53:08 12° N 23:54:23 10° NNE visible
28 May -1.1 01:28:05 10° NNW 01:30:11 20° N 01:30:11 20° N visible
28 May -1.4 21:20:32 10° W 21:23:22 26° NNW 21:26:13 10° NE visible
28 May -0.5 22:59:20 10° NNW 23:00:44 12° N 23:02:08 10° NNE visible
29 May -0.8 00:36:14 10° NNW 00:38:18 15° NNE 00:39:01 15° NNE visible
29 May -0.6 22:06:34 10° NW 22:08:21 14° NNW 22:10:08 10° NNE visible
29 May -0.6 23:44:19 10° NNW 23:45:56 13° N 23:47:34 10° NE visible
30 May -0.9 01:20:10 10° NW 01:20:50 14° NNW 01:20:50 14° NNW visible
30 May -0.8 21:13:45 10° WNW 21:16:00 17° NNW 21:18:15 10° NNE visible
30 May -0.6 22:52:14 10° NNW 22:53:32 12° N 22:54:50 10° NNE visible
31 May -1.2 00:28:16 10° NNW 00:30:11 21° N 00:30:11 21° N visible
31 May -0.6 21:59:48 10° NNW 22:01:06 12° N 22:02:25 10° NNE visible
31 May -1.2 23:36:23 10° NNW 23:38:39 17° NNE 23:39:36 15° NE visible
01 Jun -0.8 21:07:03 10° NW 21:08:41 13° N 21:10:18 10° NNE visible
01 Jun -0.9 22:44:28 10° NNW 22:46:16 14° NNE 22:48:03 10° NE visible
02 Jun -1.3 00:20:18 10° NW 00:21:42 22° NNW 00:21:42 22° NNW visible
02 Jun -0.8 21:52:26 10° NNW 21:53:49 12° N 21:55:14 10° NNE visible
02 Jun -1.9 23:28:21 10° NW 23:31:11 26° NNE 23:31:13 26° NNE visible
03 Jun -0.8 21:00:06 10° NNW 21:01:21 12° N 21:02:38 10° NNE visible
03 Jun -1.3 22:36:26 10° NNW 22:38:51 19° NNE 22:40:45 13° ENE visible
04 Jun -1.2 00:12:25 10° NW 00:13:23 18° NW 00:13:23 18° NW visible
04 Jun -1.1 21:44:30 10° NNW 21:46:28 15° NNE 21:48:25 10° NE visible
04 Jun -2.7 23:20:20 10° NW 23:22:57 43° N 23:22:57 43° N visible
05 Jun -2.2 22:28:20 10° NW 22:31:18 30° NNE 22:32:33 23° ENE visible
